Regional Weather Roundup
Issued by NWS

Home | Current Version | Previous Version | Graphics & Text | Print | Product List | Glossary On
Versions: 1 2 3 4 5 6 7 8 9 10 11 12 13 14 15 16 17 18 19 20 21 22 23 24 25 26 27 28 29 30 31 32 33 34 35 36 37 38 39 40 41 42 43 44 45 46 47 48 49
000
ASUS45 KBOI 171110
RWRID
WEATHER ROUNDUP FOR IDAHO
NATIONAL WEATHER SERVICE BOISE ID
500 AM MDT WED SEP 17 2014

NOTE: "FAIR" INDICATES FEW OR NO CLOUDS BELOW 12000 FEET
WITH NO SIGNIFICANT WEATHER AND/OR OBSTRUCTIONS TO VISIBILITY

IDZ012-014-171200-
SOUTHWEST IDAHO


CITY           SKY/WX    TMP DP  RH WIND       PRES   REMARKS
BOISE          CLOUDY    72  42  34 SE12      29.82S
CALDWELL       CLOUDY    63  43  48 S3        29.83S
MOUNTAIN HOME  MOCLDY    65  41  41 E10       29.84S
$$

IDZ016-017-171200-
SOUTHCENTRAL IDAHO


CITY           SKY/WX    TMP DP  RH WIND       PRES   REMARKS
BURLEY         MOCLDY    55  47  74 CALM      29.92R
JEROME         MOCLDY    64  43  46 NE12      29.90F
TWIN FALLS     PTCLDY    59  42  53 S8        29.92S
$$

IDZ019>023-171200-
SOUTHEAST IDAHO


CITY           SKY/WX    TMP DP  RH WIND       PRES   REMARKS
IDAHO FALLS    PTCLDY    54  46  74 N6        29.99F
POCATELLO      CLEAR     58  44  60 NE6       29.97S
REXBURG        CLEAR     49  42  77 NE6       30.01F
$$

IDZ006-010-011-018-031-032-171200-
CENTRAL IDAHO MOUNTAINS


CITY           SKY/WX    TMP DP  RH WIND       PRES   REMARKS
MCCALL         PTCLDY    50  41  71 CALM      29.97S
HAILEY         PTCLDY    55  36  47 NW12      30.05S
STANLEY          N/A     40  32  73 CALM      30.14S
SALMON         PTCLDY    46  41  81 CALM      30.00S
CHALLIS        CLEAR     49  41  74 CALM      30.04F
$$

IDZ002-004-006-007-026-171200-
NORTHERN IDAHO


CITY           SKY/WX    TMP DP  RH WIND       PRES   REMARKS
LEWISTON       CLOUDY    62  35  36 CALM      29.81S
LOWELL           N/A     54  52  93 CALM      29.87S
COEUR D`ALENE  PTCLDY    54  45  71 CALM      29.85S
MULLAN PASS    PTCLDY    61  36  39 S6        30.02F
$$


USA.gov is the U.S. government's official web portal to all federal, state and local government web resources and services.